Location: ??????????
(48.4699°N, 37.9573°E)
Time: 13:37:47
(UTC+00:00)

CZ-4 R/B - Pass Details

Date: 20 January 2021
Orbit: 530 x 599 km, 97.7° (Epoch: 26 February)

Event Time Altitude Azimuth Distance (km) Brightness Sun altitude
Rises 14:40:43 0° 122° (ESE) 2,799 4.6 -5.6°
Reaches altitude 10° 14:43:30 10° 102° (ESE) 1,891 3.6 -6.1°
Maximum altitude 14:46:06 17° 62° (ENE) 1,497 2.9 -6.5°
Drops below altitude 10° 14:48:42 10° 22° (NNE) 1,874 3.6 -6.9°
Sets 14:51:26 0° 2° (N) 2,761 4.7 -7.3°
